User: anonymous   Login
Location: Coleto Creek Park and Reservoir
(28.7196°N, 97.1740°W)
Time: 18:10:53
(UTC-05:00)
Language:

Hubble Space Telescope - Orbit

View from above orbital plane
View from above orbital plane
View from above satellite
View from above satellite

Ground track
Ground track

The orbit data is extracted from the following two-line orbital elements,

1 20580U 90037B   16121.83432870 +.00001027 +00000-0 +53290-4 0  9993
2 20580 028.4694 211.4170 0003024 061.6247 237.4759 15.08326835227864
Epoch (UTC): 30 April 2016 20:01:26
Eccentricity: 0.0003024
inclination: 28.4694°
perigee height: 539 km
apogee height: 543 km
right ascension of ascending node: 211.4170°
argument of perigee: 61.6247°
revolutions per day: 15.08326835
mean anomaly at epoch: 237.4759°
orbit number at epoch: 22786

The dashed part of the orbit path shows where the satellite is in the earth's shadow,  

DLR